RH
90 93 91 87 89 90 90 88 83 77 73 69 67 75 82 82 82 87 90 86 83 86 91 93 91 90 89 88 89 86 86 88 85 81 79 85 90 89 90 88 88 90 89 87 85 83 82 82 82 81 84 85 81 76 75 79 83 85 83 80 79 79 80 81 82 80 79 80 77 69 67 69 73 77 78 75 74 72 71 73 75 78 79 81 88
76 73 82 88 91 94 91 87 84 78 74 69 65 71 77 79 81 84 84 76 74 84 89 88 88 89 88 90 92 91 92 92 94 93 85 88 96 94 93 94 93 94 93 91 89 87 87 88 86 84 82 77 71 69 73 81 87 89 88 85 83 83 85 87 87 86 86 85 78 71 67 66 70 76 79 77 74 71 69 71 72 73 73 74 79
76 73 80 88 93 93 91 91 88 79 73 70 70 73 76 79 79 76 77 77 79 84 79 73 80 88 88 90 93 92 90 90 91 85 81 93 99 94 96 96 94 94 93 91 89 90 89 86 83 82 77 69 63 65 74 83 87 87 89 89 87 87 88 89 91 91 91 87 83 83 76 71 73 78 79 75 72 71 69 70 70 69 69 69 72
84 80 78 86 93 90 92 97 92 83 77 75 77 78 78 80 76 70 74 83 88 85 75 71 77 82 83 86 88 86 85 84 80 73 80 96 97 93 94 89 85 85 82 80 79 83 86 83 82 79 71 62 58 62 72 80 88 91 90 90 91 88 85 85 89 94 95 92 90 90 83 78 80 79 74 70 73 75 70 70 72 70 70 71 73
91 86 78 83 91 92 96 98 90 85 83 81 82 82 79 78 77 75 77 85 88 82 81 84 81 76 78 84 83 79 76 73 72 77 88 95 93 91 88 80 77 76 72 69 68 73 77 75 73 68 63 61 60 67 77 80 89 93 87 86 90 92 86 80 84 92 95 96 96 95 92 89 86 83 80 76 74 74 73 75 75 76 76 73 73
95 91 81 83 93 98 98 92 86 86 83 84 85 80 77 81 85 84 82 87 85 73 76 84 81 80 82 83 84 82 78 76 83 92 95 95 94 91 88 82 76 75 71 64 60 64 65 60 56 55 60 66 62 64 72 73 74 75 71 72 78 84 84 80 83 87 87 94 99 97 97 97 95 93 95 90 77 70 73 77 78 80 81 79 76
98 97 91 92 97 100 96 86 82 86 84 84 85 79 80 85 86 84 82 83 79 69 72 77 77 82 84 84 89 87 85 90 97 97 94 95 96 95 96 89 77 76 72 59 52 56 57 53 50 49 52 58 54 49 53 52 50 53 55 60 64 68 76 82 86 84 80 86 94 98 99 99 98 98 99 98 91 80 71 73 79 82 82 82 80
97 97 92 93 98 100 98 86 80 86 87 86 87 84 83 84 83 82 79 73 68 66 69 72 75 81 81 83 88 86 90 98 98 93 91 94 97 98 97 88 76 72 67 57 50 49 49 46 46 45 43 45 43 38 41 38 35 39 42 49 57 61 69 81 87 88 87 86 86 90 93 95 98 100 100 99 101 96 82 77 82 84 84 82 79
89 88 86 92 99 100 99 92 86 90 91 89 90 84 78 79 80 77 71 65 65 65 64 68 78 83 77 74 81 88 93 96 93 91 94 96 99 99 97 94 87 73 58 55 52 45 44 43 41 41 39 39 37 33 35 32 29 30 30 38 48 50 57 70 78 84 92 94 89 86 87 90 90 89 92 96 98 100 96 92 89 85 84 82 78
86 86 88 96 100 99 99 97 96 95 91 88 88 80 74 77 78 73 69 68 69 70 73 78 81 82 78 76 85 94 94 92 93 96 99 99 100 100 97 94 90 74 56 51 50 45 43 41 38 37 34 33 33 31 31 29 27 28 30 38 46 47 49 51 59 68 75 82 90 93 94 93 87 81 87 96 98 99 100 99 94 91 90 86 81
92 92 92 99 99 98 100 99 98 94 89 89 88 82 80 82 82 77 73 72 71 75 84 89 87 86 88 88 93 97 94 95 98 99 100 100 100 99 92 82 72 62 53 46 44 42 38 35 34 31 30 30 30 30 30 29 29 30 33 37 40 42 40 39 46 53 56 67 82 92 96 97 96 94 95 99 99 99 100 98 96 97 96 90 86
93 94 94 100 99 98 100 100 97 91 89 93 92 90 91 90 84 77 75 77 77 80 86 91 93 93 92 92 95 99 98 99 100 100 100 99 99 97 93 88 75 58 47 41 36 34 31 31 31 29 31 32 31 32 31 31 33 31 31 34 35 37 37 40 43 42 46 58 70 81 89 94 98 98 97 98 99 99 99 99 98 97 94 87 83
94 96 97 100 99 99 100 100 97 93 94 97 96 96 97 95 87 78 81 85 84 86 87 89 90 88 88 92 96 100 100 99 100 99 99 99 98 97 95 94 81 58 42 36 31 31 31 32 32 31 32 31 31 32 32 32 32 30 30 33 34 34 36 41 42 43 54 60 66 80 88 93 98 98 97 98 99 100 99 99 96 92 92 86 76
96 98 99 100 100 100 100 100 98 98 100 99 98 98 98 99 93 85 88 90 87 86 84 83 82 80 84 93 99 100 100 100 101 99 99 98 94 92 88 82 67 48 36 32 30 32 33 32 32 32 31 31 31 30 30 30 29 29 30 30 31 31 36 49 55 60 71 74 77 88 93 96 99 99 99 98 99 100 99 99 97 91 89 83 77
98 100 100 99 100 100 100 100 100 99 100 100 98 97 97 95 90 85 85 85 80 77 76 76 76 76 84 95 100 100 99 97 95 91 89 86 83 82 79 69 54 39 33 33 33 33 33 33 32 32 30 29 28 27 27 26 24 25 26 26 27 27 39 67 83 84 89 88 87 93 96 99 100 99 100 100 100 100 98 99 100 95 90 85 82
99 99 99 99 100 100 99 100 100 100 100 100 98 96 92 87 84 82 80 79 75 72 71 72 73 79 90 98 99 99 97 89 81 76 71 69 70 71 67 56 43 36 35 35 35 33 33 32 30 29 27 25 23 23 21 19 17 18 21 23 25 32 54 81 93 94 97 94 93 97 98 99 99 98 99 99 99 99 98 99 100 100 98 95 93
99 96 97 99 99 98 99 100 100 100 100 99 100 97 89 84 83 81 79 78 77 76 76 74 75 84 92 95 96 96 92 79 68 61 56 56 59 56 52 45 37 36 37 35 35 32 30 29 26 24 21 18 18 16 15 15 13 12 19 24 30 50 78 91 90 93 96 95 95 97 98 99 98 97 97 99 99 98 98 98 97 97 100 100 99
97 95 96 98 99 97 99 101 99 100 100 99 100 98 92 88 84 80 79 81 83 83 81 77 79 87 91 92 92 89 83 77 76 73 63 58 58 52 47 42 37 36 36 33 32 29 26 23 20 18 15 14 13 12 12 13 11 13 20 28 40 65 88 93 92 95 93 94 97 95 96 99 96 95 98 99 100 99 94 84 78 79 88 99 101
94 94 96 99 100 99 99 100 99 100 100 99 100 98 95 94 91 88 89 92 92 89 84 83 87 92 91 87 84 83 83 83 86 85 74 65 59 51 44 39 35 34 32 31 28 25 22 18 16 15 13 13 11 10 12 10 17 29 31 39 61 80 89 90 90 91 92 95 97 96 98 100 97 98 100 99 99 95 83 69 65 65 70 86 98
94 94 99 99 99 100 100 100 100 100 100 99 98 97 97 96 97 97 98 99 98 94 92 93 94 93 90 87 83 83 86 85 78 69 62 59 52 42 37 34 33 30 28 28 25 21 18 15 15 14 12 13 10 9 10 7 26 53 55 61 82 89 86 87 87 88 92 95 96 96 100 100 98 98 96 93 89 79 69 63 66 67 64 76 92
94 96 100 100 99 100 100 100 100 99 98 96 95 97 98 98 99 99 99 100 99 98 99 97 94 93 92 91 87 83 82 78 69 57 49 46 40 35 34 31 28 27 27 25 21 18 16 13 14 12 9 11 8 8 8 4 28 68 76 78 89 88 85 85 84 89 91 92 94 96 99 99 95 92 87 83 78 69 65 64 66 73 71 76 90
93 97 99 99 100 100 100 100 100 97 95 94 94 96 98 99 99 100 99 99 99 99 99 96 94 94 93 90 87 83 75 64 58 50 42 38 33 31 30 25 23 27 28 23 16 14 13 10 10 9 7 9 5 6 8 6 28 67 81 84 86 84 86 85 83 88 89 89 92 92 97 97 90 87 82 78 76 70 68 68 69 79 81 78 89
94 97 98 100 100 99 100 100 97 94 93 93 95 97 98 98 97 97 97 97 99 99 97 95 95 95 94 93 90 82 67 54 50 44 37 35 31 29 27 23 22 24 24 20 14 11 10 8 9 7 5 7 4 5 7 8 32 63 73 80 85 82 86 87 83 85 84 82 84 88 96 94 88 90 85 78 76 71 68 70 68 73 80 79 86
94 99 99 100 100 99 99 97 94 92 92 94 95 95 95 94 92 92 93 97 100 98 96 96 95 94 94 95 94 83 63 49 44 39 37 36 29 26 27 25 25 25 22 17 12 10 9 7 7 5 5 6 3 6 6 8 38 69 67 68 83 87 83 81 81 84 84 83 84 92 97 92 90 94 87 79 79 74 70 72 70 69 77 82 85
95 99 100 100 100 98 98 97 95 92 91 92 92 89 88 88 88 91 94 98 98 97 98 97 95 94 93 96 96 78 55 43 39 36 38 34 24 23 24 23 24 26 25 18 11 10 9 6 6 4 5 6 3 7 7 6 35 71 73 69 81 84 75 76 83 83 81 82 82 89 94 90 90 90 84 82 83 80 75 75 76 78 84 91 93
97 98 99 100 99 98 98 98 96 93 91 90 88 86 86 85 87 92 95 96 95 95 97 97 95 94 94 97 89 62 40 35 34 33 34 27 23 24 22 22 22 20 19 14 7 8 8 5 7 5 5 7 4 6 8 7 25 57 75 79 79 75 73 80 82 70 65 70 71 81 91 90 88 86 80 83 85 81 78 77 80 88 94 99 100
97 98 100 100 98 97 96 95 93 91 89 88 87 86 84 83 85 89 93 94 92 92 94 95 94 92 93 91 74 47 35 34 32 32 29 26 34 39 37 42 46 39 33 21 9 8 8 5 6 6 5 6 5 5 7 14 28 49 72 84 78 72 74 77 70 55 53 60 64 75 86 81 79 80 76 79 83 79 75 76 83 94 99 100 100
96 98 100 97 95 94 92 91 89 87 87 87 88 87 84 81 82 87 92 92 90 89 90 91 90 92 92 81 60 43 38 37 34 32 27 25 32 38 41 52 60 60 55 39 17 9 8 7 6 5 6 6 6 7 8 18 38 53 69 83 78 67 66 65 57 51 53 60 65 73 77 73 74 77 74 75 78 77 76 79 86 95 100 100 99
96 98 97 95 94 92 90 89 87 87 89 90 91 91 88 83 84 89 91 89 87 87 87 88 90 93 89 71 53 45 42 39 35 31 27 24 22 25 31 41 53 64 67 54 29 13 9 8 7 6 7 6 6 10 14 23 42 55 67 84 81 64 60 60 54 54 60 62 65 70 73 74 74 71 69 70 72 76 81 87 91 95 98 101 100
97 96 95 94 92 91 89 87 87 90 94 94 94 91 87 85 86 88 88 86 85 84 86 89 91 87 76 59 49 45 39 34 30 25 23 22 23 28 32 35 45 56 61 53 31 13 9 9 7 7 8 8 8 13 21 31 45 56 66 79 79 66 64 62 54 59 67 63 61 68 73 76 74 66 62 63 64 68 76 86 95 99 100 100 100
95 94 95 93 91 91 89 87 88 91 94 95 92 88 84 84 85 85 84 83 82 84 88 88 85 76 63 51 47 43 33 27 26 24 23 22 25 29 28 28 34 39 48 56 40 16 10 10 9 8 8 8 12 18 25 33 45 58 66 72 73 71 73 70 62 64 66 59 61 71 75 77 74 64 57 56 57 60 69 82 93 98 100 100 99
95 94 95 94 92 91 88 87 89 92 93 91 88 86 83 82 83 82 81 81 81 84 86 81 76 71 61 53 50 42 33 34 36 30 25 26 29 28 24 25 32 37 50 68 60 31 14 11 9 10 9 8 13 21 28 31 42 59 69 72 72 72 74 74 71 66 59 54 61 71 74 75 73 66 61 58 56 58 65 76 86 94 99 100 100
96 97 96 95 93 92 88 88 90 90 89 86 84 83 81 79 80 81 80 81 81 80 79 76 73 71 67 64 61 54 51 55 51 39 34 35 31 25 20 19 25 31 40 59 63 39 17 12 11 10 11 10 13 22 29 32 44 61 70 73 74 73 72 72 71 67 57 52 60 69 69 68 70 70 67 63 60 61 65 71 81 94 100 99 100
97 96 96 96 95 93 88 87 89 87 85 85 81 77 76 77 78 77 77 79 77 75 74 71 70 70 69 69 68 67 66 65 59 55 53 42 26 17 17 19 24 26 29 47 58 38 16 13 14 11 12 12 14 22 28 36 54 68 71 71 72 71 70 69 69 68 61 54 59 69 69 66 70 73 70 68 66 65 68 74 81 92 99 98 97
98 95 96 97 93 87 84 86 88 84 82 82 79 74 75 76 75 74 75 74 72 71 71 68 67 68 67 67 67 67 66 64 62 60 53 41 33 32 33 36 39 33 27 36 46 37 21 15 14 12 14 14 15 21 28 39 59 72 70 67 67 68 68 69 69 68 64 60 62 69 71 70 72 75 74 74 73 68 70 77 80 84 89 90 88
98 97 95 92 86 81 83 86 85 82 80 80 78 76 75 75 75 74 72 69 68 69 70 68 67 66 65 65 65 61 60 62 58 46 35 34 43 45 37 31 31 29 24 25 31 31 24 16 14 14 15 16 17 20 25 38 56 69 71 68 67 67 67 68 70 67 65 65 65 67 70 72 72 73 73 73 73 71 72 75 76 76 78 81 82
96 95 88 82 78 80 85 86 83 81 80 79 78 77 75 73 73 71 68 68 68 69 68 65 64 65 65 64 63 57 54 54 46 31 20 24 38 42 29 21 23 24 19 16 19 19 15 12 13 15 15 17 18 20 23 31 43 53 61 68 72 71 68 68 69 67 65 66 65 63 65 68 67 65 66 66 66 66 67 69 72 72 72 76 81
94 91 83 80 82 86 87 84 81 80 78 76 75 75 74 71 69 68 68 67 67 66 66 64 64 67 65 64 63 52 40 35 28 18 13 19 36 50 48 44 48 44 27 13 11 12 11 10 12 13 16 17 18 20 22 25 30 32 35 45 58 65 67 68 67 63 61 63 64 59 56 58 57 55 56 58 59 60 61 62 67 69 69 74 80
90 86 81 83 88 87 83 80 80 80 77 76 75 74 72 69 66 65 64 63 65 67 68 68 68 67 63 59 53 37 21 16 13 10 11 17 34 52 59 63 71 72 59 39 21 12 11 12 12 13 14 16 18 21 21 22 26 26 24 28 37 48 60 67 67 63 56 53 54 51 47 47 47 47 50 52 53 57 58 58 61 66 68 72 77
90 84 80 84 86 84 83 82 81 79 78 77 75 71 67 63 61 62 63 65 66 66 65 63 56 48 40 34 26 15 9 9 8 8 12 19 35 49 58 65 73 74 69 55 36 24 21 18 14 13 14 16 18 19 18 19 23 25 25 26 28 36 49 62 68 68 58 46 41 42 42 42 41 42 46 50 52 55 56 57 59 61 65 70 73
91 87 86 89 87 85 85 83 79 78 77 74 69 64 61 60 62 64 65 63 58 52 48 42 32 24 19 16 14 12 11 10 9 8 10 21 45 65 72 73 69 59 54 51 47 48 48 40 30 24 22 24 24 21 18 16 17 21 24 25 27 30 38 48 61 70 64 49 40 40 40 39 38 41 46 50 52 54 55 56 57 59 63 67 70
90 87 87 88 87 85 83 80 79 76 71 66 62 58 58 60 63 63 59 52 43 35 30 25 20 18 17 15 15 14 12 10 8 7 10 27 56 78 79 67 56 56 65 70 69 69 69 65 58 49 40 36 31 24 19 15 14 18 23 26 28 30 30 33 46 60 60 49 42 43 42 39 38 42 48 50 51 53 54 54 56 58 60 63 67
89 88 87 87 86 85 82 80 77 70 64 62 59 58 60 61 59 55 48 39 30 25 26 28 29 28 22 17 14 12 10 10 8 8 21 43 62 68 58 43 41 54 67 72 73 73 71 69 68 64 60 56 42 23 14 13 12 14 21 26 27 27 26 25 34 47 47 40 40 43 45 45 41 41 48 51 49 51 53 52 54 57 57 60 65
90 92 90 87 85 83 80 75 69 64 62 61 57 57 59 57 50 41 33 26 24 31 43 47 40 29 19 12 11 10 9 9 8 12 30 51 58 53 46 45 52 62 65 65 67 67 65 63 63 62 64 61 43 19 8 9 10 10 17 24 25 24 23 22 28 38 39 37 42 45 46 49 46 40 45 49 46 47 51 49 49 53 54 56 63
93 93 88 84 82 79 74 69 65 64 63 60 56 54 52 47 40 33 27 28 38 51 56 47 30 17 12 11 11 12 9 8 12 24 42 57 60 58 57 57 58 59 58 59 60 59 58 59 59 60 59 45 23 10 7 8 8 8 12 19 23 23 21 20 27 38 39 38 44 47 45 48 45 36 39 46 43 42 48 46 43 47 51 53 59
93 90 85 81 79 74 69 66 64 62 60 58 53 48 43 40 40 38 38 45 54 53 43 31 20 17 18 16 12 11 12 17 28 40 52 57 56 54 54 52 51 52 51 52 53 53 56 57 55 58 58 37 12 7 10 7 7 10 10 13 19 22 21 20 25 34 37 35 41 47 45 44 41 34 35 44 44 39 42 44 39 40 46 49 55
90 86 82 79 74 69 66 64 61 60 58 56 52 45 40 40 44 48 51 53 50 39 31 28 26 29 31 26 21 25 34 43 50 54 55 54 52 50 49 48 50 51 49 48 49 49 54 59 57 57 57 40 14 7 10 8 7 10 9 9 14 17 18 18 20 27 35 37 40 47 46 41 38 32 30 38 40 34 35 39 35 32 38 43 49
86 82 79 75 71 68 66 63 60 59 59 58 56 51 45 45 51 56 55 48 37 31 34 37 37 41 44 39 38 46 54 57 56 54 55 56 56 54 51 48 48 50 51 52 52 48 50 55 54 53 54 42 19 7 10 9 6 8 8 8 11 14 15 15 16 23 35 41 43 45 44 41 38 31 25 29 34 30 29 32 29 24 28 35 42
83 80 76 73 71 69 66 62 60 59 60 59 58 54 51 53 58 58 49 38 33 35 41 44 46 49 49 45 46 53 57 56 54 54 58 61 59 56 55 53 52 54 54 50 42 32 27 28 28 28 28 23 13 9 10 9 6 7 8 7 11 14 13 14 20 26 33 40 43 44 43 41 40 36 30 30 33 30 25 25 24 21 21 27 35
81 77 73 72 71 69 64 60 59 59 59 58 56 54 55 57 58 53 40 32 35 42 45 48 51 51 45 44 49 55 58 58 55 52 53 50 42 39 40 40 38 38 35 28 20 14 10 9 10 11 11 11 11 11 11 9 7 8 8 8 12 14 13 15 24 29 32 37 43 45 44 41 40 40 37 35 37 35 27 21 22 20 18 20 28
77 73 71 70 69 65 60 58 59 59 57 55 54 54 55 56 55 48 36 33 39 44 46 49 50 45 43 49 56 59 63 65 57 45 37 28 19 18 20 20 18 18 15 11 9 9 8 7 7 8 8 9 11 11 11 11 9 7 8 10 12 14 15 18 23 30 35 39 41 43 45 43 40 42 40 36 38 39 30 21 20 19 16 15 19
Wind_Speed
17 13 11 13 14 15 16 16 17 17 18 18 17 17 16 15 14 14 15 14 12 11 10 10 9 8 9 9 9 9 9 9 9 8 8 8 7 6 6 5 4 3 2 2 2 1 1 1 2 2 2 2 3 4 6 7 7 9 11 11 13 13 13 13 14 15 16 16 17 18 17 16 15 15 15 14 14 16 17 17 18 20 20 19 21
22 18 15 15 15 17 18 18 18 19 20 19 18 17 15 13 14 14 13 11 10 12 11 8 8 8 8 8 7 9 9 9 9 8 7 6 5 5 5 5 4 4 4 4 3 3 2 1 1 2 2 3 3 4 5 6 6 8 10 11 11 12 12 12 13 15 14 16 19 20 19 16 15 14 14 14 17 18 17 18 18 18 19 17 18
29 25 21 20 19 19 21 21 20 19 19 19 18 18 16 15 15 13 12 13 12 12 10 8 9 10 9 8 7 8 8 7 7 6 5 4 4 5 5 6 6 6 7 6 6 6 4 3 3 3 4 6 5 4 3 3 5 6 8 10 11 11 11 11 12 14 15 16 17 17 18 19 16 11 12 18 20 18 15 15 16 16 17 17 17
35 31 27 25 22 22 23 22 21 20 19 20 18 18 19 17 16 13 13 15 14 12 11 9 10 10 9 8 7 8 8 7 6 4 3 3 5 7 7 8 8 8 9 9 9 8 7 7 6 6 7 8 7 5 4 3 3 4 6 7 9 10 11 10 10 12 15 16 16 16 16 15 12 12 20 22 17 16 18 16 15 17 17 17 17
33 33 31 29 24 21 22 23 21 20 20 20 20 20 20 17 16 15 15 15 15 14 13 12 10 8 7 7 6 8 7 7 6 5 4 5 7 7 8 9 8 8 9 8 8 7 7 8 7 7 7 5 3 1 2 3 1 3 5 5 6 8 11 11 9 9 12 15 16 16 13 10 13 20 24 21 16 18 21 19 17 18 18 17 17
28 30 31 29 23 18 19 22 20 19 20 21 22 21 19 18 18 18 17 16 16 16 14 12 10 8 7 7 7 8 8 8 9 8 8 8 7 7 8 8 6 6 6 5 4 4 5 6 6 6 4 2 2 1 1 3 4 5 6 6 5 6 8 10 9 8 8 10 13 14 13 13 18 23 22 21 22 21 19 18 20 21 20 19 18
22 24 25 25 21 17 18 20 21 21 21 21 21 20 19 19 20 19 18 17 16 15 15 12 11 10 9 8 8 9 9 8 10 10 9 8 8 7 7 7 4 2 3 3 3 3 4 5 4 3 2 2 1 1 2 4 6 7 8 8 8 8 8 9 10 10 9 8 8 10 12 14 18 20 21 22 25 25 23 20 20 21 22 21 22
23 22 22 22 21 19 18 19 21 23 23 22 21 20 20 19 20 20 20 19 16 15 15 13 11 10 10 9 8 8 8 8 9 9 8 8 8 7 5 4 2 1 2 3 2 2 3 3 2 1 2 2 3 4 5 7 7 7 9 9 9 10 10 10 11 12 12 12 11 11 11 11 13 16 18 19 21 25 27 24 21 20 21 23 25
25 25 24 23 22 20 19 19 21 23 23 22 21 21 21 21 21 21 20 18 17 16 14 13 11 11 11 10 7 6 8 9 8 7 7 7 7 6 2 1 1 2 3 2 1 1 1 2 2 3 4 5 7 8 7 8 9 9 9 8 9 11 10 11 13 13 14 15 15 15 14 14 14 13 14 17 19 22 24 26 26 23 22 23 23
24 25 24 23 23 21 19 20 21 22 23 22 22 23 23 23 22 22 21 19 18 17 15 14 13 12 11 11 9 7 7 7 7 7 6 6 6 5 3 2 2 2 3 1 1 3 4 4 4 5 5 6 6 7 7 8 8 9 8 8 9 11 11 11 12 13 15 15 15 16 16 17 18 17 17 18 20 21 23 26 28 25 24 23 21
23 23 23 23 22 20 20 21 21 24 25 23 24 25 25 25 23 23 23 20 19 18 17 15 15 14 12 12 11 10 9 9 8 8 7 7 7 5 2 2 2 2 2 1 1 3 4 4 5 5 6 6 6 7 8 8 8 8 8 9 10 11 12 11 10 11 13 12 11 12 13 14 15 17 19 20 21 22 25 27 27 26 26 24 21
26 25 24 23 22 21 22 22 24 27 28 26 26 27 26 26 24 23 23 21 20 19 18 16 15 15 13 13 13 12 12 12 11 10 10 8 5 2 2 2 3 3 2 1 1 3 4 5 6 6 6 7 8 8 9 9 9 9 9 10 11 11 12 12 11 12 12 12 11 11 11 11 12 13 15 17 18 20 22 24 25 26 28 28 25
28 26 25 24 24 24 24 23 26 29 29 28 28 28 26 25 25 25 24 22 20 18 16 14 12 13 13 14 15 13 13 13 11 10 8 5 4 4 4 3 3 2 0 2 4 6 6 7 7 7 8 8 8 9 9 9 9 10 10 11 11 11 11 12 12 12 12 12 12 12 11 12 11 12 13 13 15 17 19 21 24 25 27 30 29
29 26 24 25 25 25 25 25 27 28 28 29 29 27 26 24 23 23 22 19 16 14 13 11 10 11 13 15 16 16 15 15 13 11 7 5 5 5 6 5 3 2 4 5 6 7 6 7 7 8 8 8 9 9 9 10 10 10 10 11 11 10 10 12 13 13 13 13 13 13 14 15 14 13 14 14 15 17 19 21 24 25 26 28 29
29 26 24 25 25 26 27 27 27 27 27 28 27 25 24 22 19 17 16 14 12 11 11 11 12 12 12 13 15 17 17 15 13 11 9 6 5 4 5 4 3 5 7 7 7 7 7 8 8 8 8 9 9 9 10 10 10 10 10 11 11 10 10 12 13 14 15 15 15 16 16 17 17 17 17 17 17 17 18 19 21 25 27 28 28
29 26 25 25 25 27 28 28 28 26 24 25 24 23 22 19 16 13 13 12 11 13 13 13 13 13 13 13 12 12 12 11 10 10 8 7 6 5 5 6 7 8 9 8 8 8 8 8 8 8 9 9 9 10 10 10 10 11 10 11 12 11 11 11 11 14 17 17 18 18 18 17 16 17 16 15 14 14 15 16 17 20 25 28 28
29 27 26 27 27 29 29 27 27 24 22 23 22 21 20 17 16 14 14 14 13 14 13 13 13 12 12 12 11 10 9 9 8 8 8 8 7 6 8 9 10 9 9 8 9 8 8 8 8 9 9 9 9 9 10 10 11 11 11 12 12 11 13 13 13 15 16 16 17 17 16 15 15 16 15 14 14 13 13 15 16 16 19 24 27
28 26 28 30 28 28 27 26 24 21 21 22 20 19 19 17 16 15 15 15 14 14 13 12 13 12 11 11 11 10 10 9 9 8 8 8 9 9 10 10 10 9 9 9 9 9 9 8 8 8 9 9 10 10 10 11 12 12 12 13 14 15 16 16 16 16 14 14 15 15 14 14 15 15 15 15 14 14 15 16 17 17 17 19 23
29 29 30 30 28 28 28 26 24 23 24 23 19 18 18 17 16 15 15 15 14 14 14 13 13 13 12 12 11 11 11 12 11 10 9 9 10 10 10 10 10 9 9 10 9 9 9 8 8 9 9 10 10 10 10 11 12 13 14 16 18 18 18 17 17 17 16 15 15 16 17 17 17 16 16 16 16 17 19 21 21 21 20 19 19
32 33 31 30 30 30 30 28 26 25 24 21 19 19 19 18 16 15 15 14 14 14 14 14 15 13 13 13 12 12 12 11 11 11 11 11 11 11 11 11 11 10 10 10 9 9 9 9 9 9 10 10 9 9 9 10 12 14 16 17 18 18 17 16 16 17 17 17 17 18 18 19 19 19 19 19 19 21 23 24 24 24 23 22 21
33 34 32 32 32 31 29 27 25 24 23 23 22 21 19 18 17 16 15 15 15 16 16 16 17 16 15 16 14 13 12 12 12 12 13 13 12 12 12 12 12 11 10 10 9 9 9 9 9 9 9 9 9 10 10 9 12 14 16 17 16 16 16 15 15 15 16 17 17 17 18 19 20 20 21 22 22 24 25 25 25 25 25 25 23
33 34 34 33 32 31 28 25 24 24 26 26 23 19 18 17 16 15 15 15 15 15 15 17 18 16 15 15 15 14 13 14 14 14 15 15 14 13 12 12 12 12 11 10 10 10 10 10 10 9 10 10 10 10 10 10 13 14 15 16 16 16 16 15 15 16 16 16 17 17 18 20 22 22 23 24 25 26 27 27 27 26 26 25 23
33 35 36 35 33 31 28 27 26 27 27 25 21 19 19 17 16 16 16 15 14 14 15 17 17 15 14 14 15 15 16 16 16 16 17 16 16 15 13 12 12 12 12 11 10 10 10 10 11 11 11 11 11 12 10 10 14 15 15 16 16 16 16 17 17 18 18 19 19 19 20 22 24 24 25 25 26 28 29 29 28 27 27 27 24
34 34 35 36 33 30 30 30 30 29 26 23 22 20 19 18 18 18 17 16 15 15 16 17 17 16 15 15 15 15 17 18 18 18 18 17 16 15 14 13 13 13 13 12 12 12 11 12 13 13 13 12 12 13 11 11 16 17 15 16 17 16 16 17 19 20 20 20 21 21 21 23 23 24 26 27 28 30 30 30 30 28 26 26 26
36 35 36 36 32 31 31 30 30 28 25 24 24 22 20 20 19 19 18 16 15 16 17 17 18 17 17 16 15 16 18 19 19 18 17 17 17 16 15 14 13 13 13 13 14 14 13 14 15 14 14 14 14 15 12 11 15 17 15 16 17 15 16 18 19 19 19 20 21 20 21 24 25 26 29 31 31 32 33 32 31 29 27 26 27
39 36 37 35 32 32 31 29 28 27 26 26 25 23 21 20 20 20 19 17 17 17 17 17 17 17 17 17 16 17 20 20 19 18 17 17 17 16 15 14 14 14 14 14 15 15 15 16 16 16 15 15 15 15 13 11 12 15 16 17 16 16 17 18 17 18 19 20 21 21 23 26 27 29 32 33 33 33 33 32 31 28 27 28 29
38 37 37 35 32 32 31 30 29 27 27 26 24 23 22 21 20 20 19 19 19 18 17 18 19 19 18 18 18 19 21 20 18 18 18 18 17 17 16 15 14 14 15 15 16 16 17 17 17 17 16 16 16 16 14 13 13 16 18 18 16 16 17 16 16 19 22 23 24 24 25 27 28 30 33 33 32 32 31 30 29 27 26 28 30
36 36 35 34 33 33 32 31 30 28 27 25 23 23 23 21 20 19 19 20 20 19 19 19 19 19 18 19 20 21 20 19 19 18 18 17 17 17 17 16 15 15 14 14 15 16 17 17 17 17 17 17 17 17 16 15 15 16 18 18 16 15 17 16 17 22 25 26 25 25 25 27 30 32 33 32 29 29 29 28 27 26 26 27 30
34 34 34 34 34 34 33 32 30 28 26 24 23 23 23 22 20 20 20 21 20 20 20 19 18 18 19 20 22 21 20 19 19 18 18 17 16 16 17 17 16 16 15 14 15 16 17 17 18 18 18 18 19 19 18 16 16 15 18 18 15 15 16 18 20 23 26 26 25 25 25 28 31 34 33 30 27 26 26 28 27 26 25 26 29
35 33 32 34 36 34 33 33 30 27 25 24 24 24 23 22 22 21 20 21 20 20 20 19 19 19 20 21 21 20 20 19 19 19 18 18 17 17 16 16 16 16 15 14 15 16 17 17 18 18 19 19 20 20 18 17 16 16 17 18 15 15 16 18 22 24 26 27 27 25 26 29 33 35 35 32 29 29 30 31 30 27 24 24 27
36 34 32 34 36 35 33 32 30 27 25 24 24 24 24 22 22 21 21 20 20 19 19 20 20 20 21 22 21 21 20 19 19 18 18 18 17 17 17 17 17 16 16 15 15 15 16 17 18 18 19 20 20 18 17 16 17 17 18 18 16 16 16 17 21 24 26 29 28 27 27 30 33 36 36 36 35 37 38 36 34 30 26 24 25
34 34 35 36 37 35 34 33 30 26 24 23 24 25 25 23 22 22 21 20 20 20 19 20 20 21 21 21 21 21 20 19 18 18 18 17 17 17 17 17 17 16 16 15 14 14 15 16 17 18 19 20 19 17 16 17 19 19 18 17 16 16 16 17 18 22 26 30 30 28 27 30 33 35 37 38 38 40 41 39 37 34 30 29 28
32 34 37 38 37 36 35 33 29 25 23 23 23 23 23 23 22 22 21 21 21 21 20 21 20 20 20 20 20 20 20 19 18 18 18 17 17 18 17 17 17 16 16 16 14 14 15 16 17 18 19 19 18 17 16 19 22 20 18 16 15 15 17 17 16 19 25 29 29 28 27 29 32 33 35 37 38 40 41 41 39 37 34 34 35
35 38 40 39 38 37 34 31 29 26 25 24 24 23 22 23 22 21 21 22 22 22 21 21 20 20 20 20 19 19 19 18 18 18 17 17 18 18 18 17 16 15 15 16 15 14 15 16 16 17 18 19 19 17 16 18 20 19 18 17 15 13 15 16 15 17 23 27 28 27 26 28 30 32 34 36 38 39 40 40 40 39 38 39 40
39 41 42 40 40 37 34 32 30 29 27 25 25 25 23 23 23 22 22 23 23 22 22 21 21 21 20 20 20 20 19 18 18 18 18 18 18 17 16 16 15 14 14 15 15 15 15 16 16 17 18 19 19 17 15 16 17 17 16 17 15 13 13 15 16 17 21 24 27 26 25 27 29 30 32 35 36 37 38 39 40 41 41 43 44
43 44 42 40 39 38 36 34 32 30 29 28 27 26 23 22 23 23 23 23 23 23 23 23 23 21 20 20 20 19 19 19 18 19 20 19 18 16 15 16 15 14 13 14 15 15 15 16 16 16 17 19 20 18 16 15 15 15 16 15 13 13 14 14 15 17 19 22 24 24 23 25 27 29 31 32 34 36 37 37 39 41 41 43 44
44 43 41 39 39 39 38 36 34 32 32 31 29 27 24 23 23 24 24 24 24 24 23 23 22 21 20 20 20 20 20 19 19 20 21 20 18 16 16 16 15 14 13 13 14 14 15 16 16 17 17 18 19 19 17 16 14 13 14 14 11 11 13 14 15 16 18 19 20 21 21 23 25 27 29 31 33 35 37 37 38 40 41 41 43
44 42 41 41 41 40 38 36 35 32 30 29 28 27 27 25 25 25 25 24 24 23 23 22 22 21 21 21 20 20 21 21 21 22 22 21 19 16 15 14 13 13 13 14 15 15 15 15 16 16 17 17 17 17 16 16 15 13 13 14 12 12 13 15 14 14 15 16 17 19 20 21 23 25 28 30 32 35 37 38 38 39 40 40 40
43 41 43 43 41 39 38 36 34 32 29 28 28 29 29 27 25 24 24 24 24 23 24 24 24 24 23 23 22 22 23 23 23 23 22 22 20 17 15 14 12 10 10 12 14 15 16 16 16 16 17 16 16 15 15 15 16 15 15 16 15 14 15 15 14 13 14 16 17 19 20 21 22 24 27 29 32 33 35 37 37 38 39 38 37
43 43 44 43 40 38 38 36 33 30 28 27 28 28 28 27 26 26 25 26 26 26 27 27 26 25 25 24 23 23 23 23 23 23 23 21 20 17 15 13 10 9 10 11 13 14 15 16 16 16 16 16 15 14 13 14 15 15 16 17 16 14 14 14 13 12 14 17 19 20 22 22 22 25 27 29 30 31 33 35 35 35 36 36 35
46 44 42 41 39 37 35 32 29 28 27 27 28 28 28 28 28 28 28 29 29 29 27 26 24 24 23 23 23 23 23 23 22 23 23 22 20 16 13 11 11 11 12 13 12 12 12 13 14 15 15 15 14 12 12 13 14 15 16 16 16 14 13 13 12 11 13 17 20 22 23 23 24 25 27 29 30 30 31 33 33 33 33 33 32
46 43 41 40 38 34 30 29 30 30 29 29 29 30 30 30 30 30 29 28 27 25 24 23 24 24 23 23 24 23 23 23 22 22 22 20 17 14 12 14 14 13 12 10 9 8 9 9 10 11 12 13 13 11 10 11 12 14 15 14 14 13 12 12 12 11 12 16 20 23 24 25 25 25 26 29 29 29 31 32 30 30 32 32 31
46 42 40 39 37 34 31 32 32 31 30 30 31 32 32 31 30 28 25 25 24 24 24 24 25 25 24 24 24 23 23 23 22 22 21 18 15 13 14 15 15 13 11 10 8 8 7 7 7 7 8 9 10 10 9 9 10 12 13 12 12 12 11 12 12 12 13 16 20 23 24 26 26 25 25 27 29 28 30 31 29 29 31 32 31
47 44 41 38 36 35 34 33 32 31 30 31 32 32 31 29 27 25 25 27 27 26 26 25 25 25 25 25 24 24 24 23 23 22 20 18 16 14 13 13 11 10 9 8 8 7 6 6 6 5 5 5 7 9 9 8 8 9 11 11 12 11 10 11 12 12 14 17 20 22 24 24 25 24 23 25 28 28 28 30 30 29 30 32 32
47 44 41 38 37 37 35 34 32 30 30 30 29 29 28 27 27 29 30 29 28 27 26 26 26 26 26 25 25 24 24 24 23 21 19 16 14 12 11 10 9 8 7 7 7 7 6 6 5 4 3 5 6 8 9 8 8 8 10 11 11 11 11 11 12 13 15 17 19 21 22 22 23 23 23 24 27 28 28 30 30 29 31 33 32
47 43 41 39 39 38 36 34 32 29 27 27 27 27 28 30 31 31 30 29 28 28 27 27 27 26 26 26 26 26 24 23 20 18 15 13 12 11 10 10 10 9 9 8 7 7 6 5 5 4 3 4 6 6 7 8 8 8 9 10 11 12 11 11 12 13 15 17 19 19 20 21 22 23 23 24 26 28 28 29 31 31 31 32 32
47 44 41 40 39 37 34 32 30 28 27 27 27 28 30 32 31 29 29 29 29 29 28 28 27 27 26 26 26 25 23 20 16 14 13 12 11 12 12 12 11 10 9 9 8 8 7 6 6 5 3 3 4 5 6 7 7 8 9 10 12 12 12 11 13 15 15 17 20 19 19 20 21 23 23 24 26 28 28 28 31 32 32 32 32
46 44 42 41 40 37 35 33 31 29 28 28 28 29 31 31 30 29 30 30 30 30 29 28 28 27 25 26 25 24 21 18 16 15 15 14 14 15 16 16 15 14 13 11 10 10 10 9 8 7 4 1 1 4 5 6 7 8 9 10 13 13 13 13 15 17 17 17 19 19 18 19 21 23 24 25 26 28 28 28 30 32 32 31 31
44 43 43 42 40 38 36 34 32 31 30 29 29 29 30 30 30 30 31 32 32 31 29 28 27 26 25 26 25 22 19 17 19 19 19 18 18 17 17 16 15 15 14 11 9 10 9 9 8 7 5 3 3 4 5 5 7 8 9 11 13 13 13 14 16 18 18 18 18 18 18 20 22 23 25 26 26 28 28 27 29 31 31 31 31
44 42 41 40 39 38 36 34 33 31 30 30 30 30 30 29 29 31 32 33 33 31 29 28 26 26 27 26 23 20 17 17 19 20 19 17 16 15 14 14 14 13 11 8 6 6 6 6 6 6 4 3 4 4 5 5 7 8 10 11 12 11 12 14 15 16 17 18 17 17 18 19 21 22 24 25 25 26 27 27 28 30 31 31 31
44 42 41 40 38 37 36 34 33 32 31 31 31 30 30 29 30 31 33 34 33 31 29 27 26 27 27 24 20 19 17 16 18 20 17 15 15 15 14 12 12 11 9 8 7 7 6 5 5 5 4 3 3 4 5 5 6 8 9 10 10 11 11 13 14 15 17 18 17 16 17 18 19 20 22 23 23 24 26 26 26 28 30 30 30
Wind_Direction
132 127 148 155 153 159 163 160 153 151 148 147 157 160 159 158 152 157 159 154 157 161 167 175 174 176 175 171 171 160 154 168 165 160 170 177 176 157 145 143 144 156 152 171 223 227 229 288 343 350 360 339 327 331 328 331 330 324 324 329 330 328 328 328 324 322 324 325 323 322 321 320 322 324 322 322 324 321 312 308 308 305 299 292 286
150 151 161 159 160 169 166 160 158 156 153 155 161 160 160 162 159 166 164 154 162 168 168 171 167 168 168 168 168 153 155 167 151 148 167 166 152 138 136 144 156 179 181 183 206 214 205 211 278 301 305 291 297 319 327 334 328 325 329 334 337 334 334 335 331 329 328 325 325 327 330 332 333 329 323 324 324 320 316 314 312 307 303 299 291
158 160 164 163 169 175 166 161 164 162 159 163 164 160 163 167 164 166 162 156 164 166 161 164 167 162 158 163 162 144 147 153 143 152 161 146 158 169 173 183 191 199 202 203 207 212 210 211 237 260 279 281 282 291 301 317 321 326 332 335 337 336 336 337 334 332 328 327 329 330 331 331 335 333 320 321 323 319 320 320 318 319 315 310 303
160 161 163 165 173 176 166 162 165 164 163 167 165 159 162 165 159 157 162 160 157 154 153 161 167 159 151 157 155 142 140 141 145 152 138 166 214 211 208 212 212 217 220 223 221 220 224 227 240 253 261 268 273 275 261 265 327 332 324 327 331 331 331 333 338 336 331 332 330 327 329 329 329 323 317 322 327 324 326 326 322 324 322 316 311
162 160 160 163 169 171 168 165 163 162 164 167 164 160 162 163 155 153 161 158 148 147 150 154 159 156 154 158 158 151 148 147 151 159 176 215 234 229 231 230 224 226 229 232 230 222 225 229 236 247 254 255 254 252 253 251 243 276 292 302 317 325 325 325 334 335 333 334 331 327 327 319 314 319 321 323 324 321 323 324 322 322 320 318 314
163 159 158 160 159 160 168 168 167 166 164 166 166 163 161 154 150 154 159 154 144 144 150 152 152 155 161 164 164 155 147 152 162 176 197 215 230 236 239 236 229 225 227 236 232 214 219 230 231 232 227 200 176 157 254 263 251 259 278 283 286 298 307 314 321 320 322 330 332 330 325 316 316 320 320 316 318 321 323 320 319 319 317 315 315
155 151 150 153 152 152 162 166 169 168 163 164 165 159 154 151 152 154 154 151 146 148 152 152 149 156 164 166 168 157 144 156 173 187 206 218 229 239 239 241 240 209 219 231 219 211 222 236 242 237 211 192 222 271 281 286 287 288 293 293 289 285 286 297 307 309 307 306 312 319 320 321 322 322 318 314 315 318 321 321 319 317 316 315 318
147 145 147 153 154 154 163 165 165 164 160 162 159 153 153 155 153 148 146 147 150 154 152 148 149 159 166 164 167 165 161 180 193 195 209 221 233 246 242 238 230 189 226 228 210 216 225 238 250 278 303 299 304 309 301 303 308 302 296 293 292 290 286 283 289 297 301 298 293 293 300 311 320 325 325 324 320 316 318 323 323 320 317 316 319
152 156 157 157 154 159 168 162 157 159 159 160 157 154 156 155 151 145 143 145 151 154 151 151 154 160 168 167 166 175 178 189 196 193 205 217 232 250 252 98 76 253 252 241 260 295 316 336 325 310 322 324 322 325 323 321 323 322 315 305 298 299 292 281 281 286 292 295 294 294 298 302 305 311 320 327 326 323 322 322 322 322 319 317 318
155 157 157 153 154 162 163 153 151 155 156 158 155 154 154 151 149 144 141 145 150 150 150 156 159 159 164 167 172 191 194 188 191 194 205 220 231 234 215 180 197 260 286 300 318 331 351 352 341 337 344 342 336 341 343 339 340 342 336 322 309 308 305 297 290 288 291 294 295 299 307 312 311 310 314 321 324 325 323 319 320 323 321 316 317
150 149 149 150 154 158 154 149 150 151 152 155 152 150 149 147 146 142 140 146 150 151 154 158 160 159 162 170 178 190 192 185 188 192 199 216 225 225 215 229 253 275 301 310 318 339 360 11 6 8 13 7 2 4 360 358 360 352 338 327 320 320 323 325 317 304 305 310 311 313 316 317 316 314 317 322 324 323 320 318 318 320 316 312 313
148 149 150 150 152 152 153 151 149 151 153 152 149 147 147 147 147 146 146 151 155 159 164 162 163 169 177 184 185 184 185 184 186 193 205 212 205 164 86 27 306 277 257 275 49 46 41 42 34 30 28 19 14 12 7 6 2 351 344 341 336 333 335 336 331 324 324 327 328 329 325 322 326 331 330 329 327 322 319 317 316 315 312 307 305
149 152 152 150 151 152 156 153 149 153 154 150 147 145 143 144 150 153 153 158 161 165 172 174 178 188 195 197 192 188 189 190 190 196 206 193 149 135 139 169 247 250 128 65 73 67 52 46 40 31 25 20 16 12 9 7 1 355 352 347 341 339 340 338 335 337 339 337 337 340 342 344 347 343 332 324 321 320 321 320 317 316 314 309 308
152 154 154 153 154 155 154 151 150 153 153 150 148 145 143 144 152 156 153 158 165 170 181 191 201 209 208 202 198 200 203 201 196 191 183 159 150 161 166 181 210 142 91 76 73 67 56 47 40 33 27 23 20 16 14 10 4 2 356 346 343 344 347 349 349 352 352 349 351 352 356 0 356 344 334 330 330 329 331 330 325 322 319 316 315
156 155 155 157 158 155 151 150 152 152 151 151 149 147 148 148 151 153 151 158 175 189 201 208 216 217 204 194 197 203 208 204 193 183 175 165 161 163 160 160 143 100 88 79 72 65 59 51 42 38 33 28 26 21 17 12 7 6 358 347 346 353 2 4 4 3 358 356 360 1 5 7 357 346 344 346 345 340 339 337 332 326 323 320 317
159 155 155 159 159 155 154 156 156 153 150 151 149 150 152 150 150 155 160 170 189 204 211 215 214 202 184 179 182 187 193 189 180 173 168 158 150 148 138 117 97 90 86 80 74 66 61 57 51 45 39 33 28 22 17 13 9 7 360 352 354 5 14 11 11 13 5 1 5 5 7 6 350 338 339 342 340 338 336 332 331 332 329 325 321
161 156 156 162 162 160 160 160 157 153 151 149 146 148 151 152 157 165 172 179 191 199 201 198 188 174 166 167 165 164 168 166 162 157 150 143 134 122 109 99 93 92 90 84 78 73 69 64 57 48 41 35 28 22 20 16 12 9 5 0 1 13 22 16 16 19 10 4 7 5 4 357 338 331 337 339 336 333 327 320 320 326 328 326 323
160 155 159 164 162 160 160 159 156 152 149 147 145 146 147 149 158 167 170 170 173 175 172 166 157 149 147 150 151 152 146 137 133 133 133 130 122 113 108 106 103 100 96 89 84 79 71 65 59 50 41 37 31 26 24 21 19 16 14 13 15 25 28 20 18 19 9 3 4 0 357 346 335 336 343 345 345 336 328 328 328 328 328 324 321
156 158 163 163 159 158 158 158 155 150 148 147 143 140 139 141 146 150 150 149 151 152 150 145 141 142 147 148 145 139 131 131 134 135 134 128 121 117 113 110 106 104 101 96 89 83 76 67 59 51 45 41 36 32 30 30 30 26 25 29 29 32 29 20 18 17 7 3 6 4 359 349 345 350 351 350 349 340 338 342 342 339 337 331 325
159 161 162 161 159 158 157 155 150 147 145 141 136 133 135 139 139 138 138 139 142 141 137 135 137 139 140 136 134 132 131 133 134 134 131 126 122 120 116 112 111 108 105 100 93 87 80 71 63 55 51 47 41 38 36 40 43 37 36 38 34 33 30 21 20 17 9 8 9 8 3 353 350 354 353 352 349 345 346 348 345 342 341 336 330
160 160 160 159 158 156 154 151 146 142 139 137 138 138 138 140 139 138 138 136 136 135 133 134 134 135 134 133 133 133 132 133 133 132 130 126 124 123 120 119 117 112 108 104 100 92 82 76 70 62 57 53 49 48 44 49 55 47 42 40 35 35 30 21 20 18 11 11 10 8 2 354 353 355 354 354 353 351 351 350 348 344 341 338 333
158 160 160 158 156 155 152 148 144 142 143 146 146 141 138 139 138 137 135 133 135 136 135 135 136 138 139 136 135 134 134 134 131 129 127 125 124 122 122 124 121 115 110 106 102 94 88 83 75 69 65 58 54 55 52 60 64 54 47 41 36 37 30 19 21 18 12 12 10 7 1 355 356 359 358 358 357 356 355 353 351 346 339 339 335
157 160 159 157 156 155 151 146 144 145 148 150 146 141 139 137 136 135 134 134 137 135 132 133 136 138 134 131 131 132 135 134 129 129 129 128 126 123 123 122 120 117 110 104 100 95 91 86 78 72 68 61 60 60 57 67 67 56 50 45 38 36 31 22 21 18 13 12 9 8 5 360 360 1 360 0 360 358 358 355 351 348 343 340 336
155 155 155 157 155 152 150 148 148 148 148 146 141 141 140 136 136 139 138 137 135 133 132 133 134 132 128 126 126 130 135 134 132 133 132 130 129 127 124 122 118 114 108 102 99 94 89 85 80 75 70 66 66 61 58 72 70 55 46 47 42 35 29 27 25 20 16 13 10 11 8 3 3 2 0 1 0 359 358 355 352 350 346 340 338
154 153 155 157 154 151 151 149 150 149 147 144 142 142 143 142 144 145 142 138 134 136 136 134 135 134 131 127 125 130 136 136 136 135 132 131 130 127 126 124 120 115 109 103 99 93 88 82 78 74 71 68 66 62 58 68 72 61 48 44 43 36 32 33 30 22 18 14 13 14 9 5 6 6 3 2 360 358 357 354 352 350 347 344 342
154 154 156 155 152 152 151 149 150 150 147 146 145 146 146 147 149 147 142 138 138 139 136 133 134 132 129 126 127 133 138 137 136 134 131 130 127 124 124 120 116 113 107 101 97 91 87 81 77 73 70 68 66 63 57 57 69 73 63 47 38 37 39 39 32 24 22 20 19 18 13 9 8 6 4 2 358 355 355 353 352 352 353 352 347
155 155 155 153 152 152 151 151 151 149 148 147 146 148 145 146 152 148 141 140 141 140 136 133 132 129 128 128 131 135 139 138 136 134 133 132 128 126 123 115 108 104 98 95 91 88 85 81 77 74 70 67 63 60 61 63 69 75 70 53 37 37 43 40 32 28 27 26 26 23 16 11 10 8 6 4 358 354 353 353 354 356 356 355 352
156 157 155 153 154 154 153 153 151 149 149 146 147 150 146 149 157 151 142 142 140 138 136 134 132 131 131 133 135 138 139 138 137 136 137 137 135 134 129 121 113 105 96 91 88 84 81 78 75 73 69 66 61 58 60 67 71 72 71 61 41 35 43 40 33 31 28 26 26 24 17 13 14 14 11 7 1 355 354 357 358 359 357 354 351
157 159 156 154 155 155 153 152 150 149 149 147 149 151 147 149 153 146 141 141 138 138 137 135 134 133 134 137 139 140 139 137 136 136 135 134 133 133 130 125 118 109 100 95 89 83 79 75 71 68 65 61 58 56 56 63 71 71 70 65 45 33 41 40 34 32 27 24 24 22 18 18 21 21 17 12 9 8 8 6 4 2 358 352 348
158 159 159 156 156 155 153 152 151 151 151 150 148 147 145 145 145 142 141 140 139 140 139 136 136 136 138 140 140 139 139 139 138 137 135 133 130 128 127 125 121 115 109 101 92 85 79 74 70 66 63 58 54 55 56 62 71 70 68 66 49 33 38 37 33 32 26 22 24 22 20 23 26 25 23 21 22 25 24 18 11 6 0 351 346
159 159 159 157 155 155 155 154 154 154 153 148 145 145 144 143 142 142 140 139 141 142 139 138 137 137 140 141 139 139 140 139 138 136 136 135 132 130 128 125 122 118 111 100 89 83 78 74 71 66 62 59 55 57 60 64 71 71 66 62 50 38 38 34 30 29 23 21 24 24 23 27 28 27 28 28 29 30 29 23 17 13 8 360 352
160 159 158 157 155 156 157 156 154 152 147 145 145 145 143 143 144 143 142 143 145 142 138 137 136 136 140 140 138 139 137 134 134 134 134 132 130 129 128 125 122 117 111 102 91 84 79 75 72 68 63 60 58 60 66 71 75 75 70 63 52 42 38 32 26 22 19 20 24 25 28 30 29 28 28 28 30 32 31 26 21 18 14 11 8
163 159 158 158 156 155 156 154 149 145 146 147 144 140 142 145 146 145 146 145 143 140 138 137 136 136 137 136 134 134 132 130 131 132 132 131 131 131 129 125 121 117 113 107 97 89 84 78 74 70 66 62 61 65 75 79 77 74 70 64 54 42 37 34 25 15 14 18 22 23 29 33 30 27 26 26 28 31 31 27 24 22 18 15 15
163 161 160 159 155 153 153 150 147 149 152 149 142 141 147 149 146 147 149 145 141 141 139 138 138 137 136 135 135 134 133 132 132 130 130 132 132 130 125 120 116 114 113 109 102 95 88 83 77 73 69 65 64 69 79 82 80 75 67 60 52 42 35 32 23 10 10 16 19 20 27 33 31 27 25 25 24 27 28 26 24 24 22 18 17
163 162 162 159 156 154 153 151 152 156 153 147 145 148 152 152 150 152 150 144 141 141 140 141 141 140 140 141 139 137 136 134 133 134 134 132 128 124 121 118 114 113 114 113 108 101 92 86 80 77 74 69 67 71 77 83 85 84 75 62 52 45 38 32 23 12 9 13 15 18 26 32 31 28 26 25 23 23 25 23 20 20 19 16 16
165 163 162 161 160 158 156 156 158 157 152 149 149 149 151 154 153 151 147 144 144 144 145 147 145 142 142 142 140 140 138 135 137 140 138 133 127 124 125 124 120 118 117 117 114 107 99 93 86 80 77 73 72 72 75 83 88 90 87 75 57 45 41 34 26 16 11 11 11 13 23 30 30 29 27 25 22 21 19 16 13 13 12 11 12
168 166 165 164 163 161 159 160 160 156 154 153 150 148 151 154 150 148 148 148 149 148 149 149 145 142 144 143 143 144 142 140 142 144 142 135 128 125 124 121 118 115 114 115 112 105 99 95 90 84 80 76 75 74 74 79 83 87 92 89 75 57 46 37 28 18 12 10 9 11 19 26 28 28 26 24 22 19 17 13 9 7 7 6 8
170 167 163 162 162 161 161 160 158 157 158 156 153 153 156 155 151 151 150 149 149 147 147 148 145 145 147 145 146 149 150 149 148 147 144 137 130 126 124 120 116 112 109 107 105 101 96 92 88 86 81 76 75 76 76 77 77 76 79 82 84 80 63 46 33 20 13 12 11 13 19 24 26 26 26 24 21 18 15 13 9 5 4 3 4
173 170 165 163 162 161 160 159 158 158 156 155 157 159 157 154 152 153 152 151 149 147 150 152 152 152 153 152 154 157 156 154 152 149 145 139 133 131 128 123 119 116 111 104 100 98 93 87 83 82 79 76 74 74 75 75 74 70 67 68 73 77 70 56 36 19 16 18 17 17 21 24 25 26 25 24 21 17 14 12 10 5 3 3 3
173 171 167 164 162 160 158 157 157 154 152 154 158 157 155 153 153 154 154 153 154 157 162 164 164 163 163 162 161 159 157 155 152 149 144 138 133 129 123 118 121 129 128 116 104 95 87 82 78 74 72 70 67 67 70 73 72 69 64 63 63 64 67 62 41 16 14 21 23 24 23 22 24 25 24 21 19 16 12 11 10 6 2 3 4
168 166 163 161 159 157 155 155 155 155 155 157 156 155 155 156 157 158 160 162 167 172 173 172 169 166 164 161 158 156 156 154 153 151 147 141 136 130 127 134 142 138 124 109 97 87 77 70 68 64 61 59 55 54 58 63 68 68 63 61 59 56 59 62 48 23 14 19 23 24 23 22 22 24 23 19 15 15 13 10 11 8 4 4 7
165 164 163 161 157 154 153 155 158 158 157 155 155 157 158 161 165 168 172 174 176 175 170 165 161 158 156 157 157 157 156 154 154 153 148 142 135 133 142 152 149 135 120 110 102 90 73 60 54 47 43 45 44 43 45 50 59 65 62 59 57 52 51 57 52 34 22 23 24 23 21 21 19 20 22 18 13 13 13 10 10 9 5 7 10
164 164 163 161 159 157 156 157 157 157 156 157 160 162 162 168 174 175 174 173 167 161 157 154 153 155 158 160 159 157 156 154 153 151 144 139 137 139 143 142 130 117 112 111 108 101 87 76 67 48 34 31 30 34 42 43 49 61 64 61 56 51 46 49 49 39 32 33 31 24 20 18 15 15 20 17 12 13 14 10 11 11 7 8 11
166 164 161 158 158 157 156 156 156 157 161 166 170 169 168 172 173 167 163 160 155 151 151 152 156 160 161 159 158 156 156 155 153 149 142 136 134 132 128 120 110 104 105 106 107 108 104 98 93 77 52 29 19 27 39 40 41 57 68 66 58 51 46 46 48 44 37 36 34 26 19 15 10 12 20 18 13 14 15 11 11 11 8 9 12
166 163 160 159 157 157 156 156 158 164 168 171 176 176 170 166 162 158 157 155 152 153 156 158 160 160 158 157 156 154 154 153 149 143 136 131 130 132 130 127 125 126 127 123 123 123 120 115 108 93 56 30 25 29 36 39 39 48 61 67 61 50 44 46 51 50 42 38 35 27 20 15 10 13 23 22 15 15 17 13 12 12 10 10 12
165 163 163 162 159 159 158 156 159 166 168 169 174 175 167 160 158 157 156 154 156 158 158 156 155 154 154 155 154 151 149 146 140 135 132 131 133 136 138 139 139 140 138 135 133 132 130 123 112 96 50 22 33 40 37 38 45 47 54 63 63 52 43 45 53 54 46 40 37 29 19 16 14 15 23 24 15 14 18 16 12 12 12 10 12
166 165 164 163 160 158 157 155 156 160 160 162 167 169 165 161 157 155 156 158 159 157 153 150 151 150 149 150 149 146 141 136 134 136 137 137 141 147 150 149 148 147 143 139 140 139 135 129 116 100 60 6 26 50 46 41 49 54 54 59 63 57 50 51 54 54 47 38 34 27 17 14 15 17 23 26 19 15 18 19 14 13 13 12 14
166 165 163 164 162 159 157 156 156 157 159 160 162 164 165 161 156 156 159 159 157 152 149 149 149 147 148 149 147 141 135 137 146 152 152 155 164 170 169 163 158 155 152 151 157 158 154 152 149 139 135 166 46 60 62 56 57 59 58 59 60 55 50 53 53 49 46 39 31 23 16 13 14 16 22 26 22 16 18 21 18 14 15 15 15
166 165 165 165 163 160 158 157 157 158 159 159 159 161 162 158 156 159 160 156 153 151 150 150 149 148 151 150 143 137 142 155 165 166 166 172 178 178 176 173 168 166 166 166 169 169 165 161 158 156 158 157 118 79 72 66 62 62 61 59 58 54 52 54 51 43 41 39 30 20 15 12 11 12 16 21 20 15 15 21 22 17 16 18 18
167 165 165 165 163 161 160 158 157 158 159 158 158 159 159 158 158 160 159 155 153 152 151 150 151 153 153 147 141 143 156 170 176 175 175 177 175 170 172 175 173 171 172 169 158 153 151 144 141 142 141 129 111 88 76 69 63 62 59 56 55 54 52 54 53 44 37 34 27 17 13 11 9 8 11 14 16 13 11 17 23 19 16 19 20
167 165 164 163 162 161 160 158 158 159 158 158 159 159 159 159 158 159 160 158 155 153 152 153 156 156 151 145 147 154 161 170 178 181 178 171 162 157 157 160 160 159 157 152 143 139 137 132 129 130 130 122 107 88 74 68 64 61 61 60 59 59 54 50 48 45 36 27 20 15 12 9 7 8 8 9 11 10 8 13 20 21 18 19 21